Location: Poughquag
(41.6090°N, 73.6820°W)
Time: 11:58:38
(UTC-04:00)

Vanguard 2 Rocket - Pass Details

Date: 05 June 2020
Orbit: 556 x 3324 km, 32.9° (Epoch: 06 July)

Event Time Altitude Azimuth Distance (km) Brightness Sun altitude
Rises 17:20:12 0° 264° (W) 3,880 11.2 31.9°
Reaches altitude 10° 17:22:32 10° 258° (WSW) 3,187 11.1 31.5°
Maximum altitude 17:30:23 48° 187° (S) 2,200 9.2 30.0°
Drops below altitude 10° 17:43:56 10° 119° (ESE) 5,360 10.4 27.5°
Sets 17:49:09 0° 115° (ESE) 6,739 10.8 26.5°
